WMT3685 LIBP-LATI

Flight info

Callsign WMT3685
Flight time 0h 45m
Altitude 33000
Route ERPOG DCT RIVAM DCT ORAKA DCT BALHA DCT MOKUN DCT TIBRI DCT PETAK
Aircraft A321/M-SDE1E2E3FGIJ1J4RWXY/LB1

Departure

Time 2026-05-09 13:19
Airport Abruzzo Airport (LIBP)

Arrival

Time 2026-05-09 14:04
Airport Tirana International Airport Mother Teresa (LATI)
Time Latitude Longitude Altitude Speed Heading
2026-05-09 12:56 42.43003 14.18695 46 ft 0 kts 127°
2026-05-09 13:10 42.43007 14.18689 45 ft 4 kts 129°
2026-05-09 13:11 42.43026 14.18664 45 ft 4 kts 145°
2026-05-09 13:11 42.43047 14.18644 45 ft 4 kts 127°
2026-05-09 13:11 42.43053 14.18644 44 ft 3 kts 67°
2026-05-09 13:11 42.43058 14.18654 43 ft 0 kts 37°
2026-05-09 13:14 42.43060 14.18656 45 ft 2 kts 37°
2026-05-09 13:16 42.43349 14.18814 46 ft 10 kts 37°
2026-05-09 13:16 42.43410 14.18878 44 ft 12 kts 37°
2026-05-09 13:16 42.43483 14.18954 44 ft 14 kts 37°
2026-05-09 13:16 42.43569 14.19042 46 ft 16 kts 38°
2026-05-09 13:17 42.43661 14.19139 46 ft 17 kts 38°
2026-05-09 13:17 42.43758 14.19240 46 ft 16 kts 37°
2026-05-09 13:17 42.43836 14.19292 46 ft 13 kts 349°
2026-05-09 13:17 42.43901 14.19207 45 ft 13 kts 307°
2026-05-09 13:18 42.43926 14.19129 45 ft 9 kts 242°
2026-05-09 13:18 42.43904 14.19103 44 ft 0 kts 219°
2026-05-09 13:18 42.43889 14.19087 44 ft 16 kts 219°
2026-05-09 13:18 42.43569 14.18755 45 ft 96 kts 217°
2026-05-09 13:19 42.42852 14.18015 49 ft 160 kts 217°
2026-05-09 13:19 42.41924 14.17044 579 ft 167 kts 217°
2026-05-09 13:19 42.41025 14.16066 1313 ft 165 kts 218°
2026-05-09 13:19 42.40135 14.15092 2033 ft 164 kts 217°
2026-05-09 13:20 42.39250 14.14126 2739 ft 163 kts 217°
2026-05-09 13:20 42.38366 14.13164 3404 ft 164 kts 217°
2026-05-09 13:20 42.37629 14.11908 3695 ft 185 kts 252°
2026-05-09 13:20 42.37696 14.10101 3917 ft 208 kts 296°
2026-05-09 13:21 42.38762 14.08776 4348 ft 216 kts 341°
2026-05-09 13:21 42.40240 14.08809 4883 ft 218 kts 23°
2026-05-09 13:21 42.41353 14.10173 5416 ft 220 kts 58°
2026-05-09 13:21 42.42022 14.12032 5986 ft 221 kts 69°
2026-05-09 13:22 42.42553 14.13997 6538 ft 223 kts 71°
2026-05-09 13:22 42.43059 14.15966 7040 ft 226 kts 71°
2026-05-09 13:22 42.43578 14.18015 7539 ft 229 kts 76°
2026-05-09 13:23 42.44012 14.28017 9171 ft 294 kts 86°
2026-05-09 13:23 42.44138 14.30769 9896 ft 298 kts 86°
2026-05-09 13:24 42.44272 14.33619 10407 ft 312 kts 86°
2026-05-09 13:24 42.44412 14.36656 10578 ft 335 kts 86°
2026-05-09 13:24 42.44560 14.39898 10820 ft 353 kts 86°
2026-05-09 13:24 42.44711 14.43250 11388 ft 360 kts 86°
2026-05-09 13:25 42.44862 14.46657 12012 ft 365 kts 85°
2026-05-09 13:25 42.45014 14.50112 12640 ft 370 kts 85°
2026-05-09 13:25 42.45320 14.57168 13884 ft 380 kts 85°
2026-05-09 13:26 42.45473 14.60767 14441 ft 385 kts 85°
2026-05-09 13:26 42.45626 14.64410 15010 ft 390 kts 85°
2026-05-09 13:26 42.45777 14.68105 15583 ft 394 kts 85°
2026-05-09 13:26 42.45931 14.71830 16153 ft 399 kts 85°
2026-05-09 13:27 42.46088 14.75602 16728 ft 403 kts 85°
2026-05-09 13:27 42.46244 14.79416 17290 ft 408 kts 85°
2026-05-09 13:27 42.46403 14.83279 17846 ft 413 kts 85°
2026-05-09 13:27 42.46563 14.87179 18398 ft 417 kts 85°
2026-05-09 13:28 42.46722 14.91122 18877 ft 421 kts 84°
2026-05-09 13:28 42.46881 14.95103 19364 ft 425 kts 84°
2026-05-09 13:28 42.47038 14.99117 19864 ft 429 kts 85°
2026-05-09 13:28 42.47195 15.03172 20367 ft 433 kts 85°
2026-05-09 13:29 42.47352 15.07264 20865 ft 437 kts 84°
2026-05-09 13:29 42.47509 15.11393 21360 ft 441 kts 85°
2026-05-09 13:29 42.47666 15.15560 21848 ft 445 kts 85°
2026-05-09 13:29 42.47822 15.19768 22322 ft 449 kts 85°
2026-05-09 13:30 42.47980 15.24005 22787 ft 452 kts 84°
2026-05-09 13:30 42.48144 15.28276 23243 ft 456 kts 84°
2026-05-09 13:30 42.48313 15.32581 23687 ft 459 kts 84°
2026-05-09 13:30 42.48481 15.36926 24039 ft 463 kts 84°
2026-05-09 13:31 42.48646 15.41301 24417 ft 466 kts 85°
2026-05-09 13:31 42.48809 15.45701 24785 ft 469 kts 85°
2026-05-09 13:31 42.48916 15.48644 25025 ft 471 kts 85°
2026-05-09 13:31 42.49077 15.53093 25388 ft 474 kts 85°
2026-05-09 13:32 42.49238 15.57575 25739 ft 477 kts 85°
2026-05-09 13:32 42.49557 15.66620 26439 ft 483 kts 85°
2026-05-09 13:32 42.49714 15.71183 26788 ft 486 kts 85°
2026-05-09 13:33 42.49870 15.75782 27125 ft 489 kts 85°
2026-05-09 13:33 42.50027 15.80395 27463 ft 492 kts 85°
2026-05-09 13:33 42.50182 15.85044 27795 ft 495 kts 85°
2026-05-09 13:33 42.50328 15.89659 28121 ft 498 kts 85°
2026-05-09 13:34 42.50471 15.94371 28443 ft 501 kts 85°
2026-05-09 13:34 42.50614 15.99102 28753 ft 504 kts 85°
2026-05-09 13:34 42.50756 16.03859 29059 ft 507 kts 85°
2026-05-09 13:34 42.50900 16.08643 29357 ft 509 kts 85°
2026-05-09 13:35 42.51044 16.13454 29673 ft 512 kts 85°
2026-05-09 13:35 42.51190 16.18291 29984 ft 515 kts 85°
2026-05-09 13:35 42.51336 16.23150 30262 ft 518 kts 85°
2026-05-09 13:35 42.51480 16.28047 30513 ft 521 kts 85°
2026-05-09 13:36 42.51619 16.32959 30825 ft 522 kts 86°
2026-05-09 13:36 42.51752 16.37872 31173 ft 522 kts 86°
2026-05-09 13:36 42.51881 16.42797 31504 ft 523 kts 86°
2026-05-09 13:36 42.52011 16.47731 31834 ft 524 kts 85°
2026-05-09 13:37 42.52138 16.52662 32163 ft 524 kts 85°
2026-05-09 13:37 42.52264 16.57612 32464 ft 526 kts 85°
2026-05-09 13:37 42.52390 16.62574 32723 ft 526 kts 85°
2026-05-09 13:37 42.52517 16.67538 32972 ft 527 kts 85°
2026-05-09 13:38 42.52761 16.77402 33069 ft 519 kts 85°
2026-05-09 13:38 42.52992 16.87147 33065 ft 516 kts 85°
2026-05-09 13:39 42.53209 16.96882 33063 ft 516 kts 85°
2026-05-09 13:39 42.53408 17.06619 33063 ft 516 kts 85°
2026-05-09 13:40 42.53616 17.16348 33065 ft 516 kts 85°
2026-05-09 13:40 42.53811 17.26077 33071 ft 516 kts 85°
2026-05-09 13:41 42.54013 17.35809 33077 ft 516 kts 85°
2026-05-09 13:41 42.54198 17.45544 33082 ft 516 kts 85°
2026-05-09 13:42 42.54360 17.55279 33084 ft 516 kts 85°
2026-05-09 13:42 42.54521 17.65010 33087 ft 516 kts 85°
2026-05-09 13:43 42.54682 17.74749 33089 ft 516 kts 85°
2026-05-09 13:43 42.54831 17.84474 33095 ft 516 kts 85°
2026-05-09 13:44 42.54899 17.89342 32953 ft 515 kts 85°
2026-05-09 13:44 42.54964 17.94162 32694 ft 514 kts 85°
2026-05-09 13:44 42.55030 17.98993 32310 ft 512 kts 85°
2026-05-09 13:44 42.55103 18.03820 31679 ft 511 kts 85°
2026-05-09 13:45 42.55174 18.08631 31085 ft 510 kts 85°
2026-05-09 13:45 42.55231 18.13431 30487 ft 509 kts 85°
2026-05-09 13:45 42.55280 18.18226 29826 ft 508 kts 85°
2026-05-09 13:45 42.55049 18.23004 29236 ft 508 kts 96°
2026-05-09 13:46 42.54257 18.27649 28726 ft 505 kts 106°
2026-05-09 13:46 42.52946 18.32048 28183 ft 502 kts 116°
2026-05-09 13:46 42.51154 18.36076 27652 ft 497 kts 125°
2026-05-09 13:46 42.49186 18.39904 27125 ft 493 kts 125°
2026-05-09 13:47 42.47236 18.43687 26612 ft 488 kts 125°
2026-05-09 13:47 42.45302 18.47443 26107 ft 483 kts 125°
2026-05-09 13:47 42.43377 18.51151 25625 ft 479 kts 125°
2026-05-09 13:47 42.41396 18.54742 25141 ft 474 kts 131°
2026-05-09 13:48 42.39082 18.57857 24690 ft 467 kts 141°
2026-05-09 13:48 42.36647 18.60741 24231 ft 463 kts 140°
2026-05-09 13:48 42.34243 18.63618 23783 ft 459 kts 140°
2026-05-09 13:48 42.31872 18.66479 23294 ft 455 kts 140°
2026-05-09 13:49 42.29525 18.69320 22851 ft 450 kts 139°
2026-05-09 13:49 42.27210 18.72130 22401 ft 445 kts 139°
2026-05-09 13:49 42.24916 18.74907 21954 ft 441 kts 139°
2026-05-09 13:49 42.22635 18.77656 21509 ft 438 kts 139°
2026-05-09 13:50 42.20370 18.80378 21034 ft 435 kts 139°
2026-05-09 13:50 42.18120 18.83080 20574 ft 432 kts 139°
2026-05-09 13:50 42.15888 18.85768 20100 ft 429 kts 139°
2026-05-09 13:50 42.13674 18.88427 19706 ft 423 kts 139°
2026-05-09 13:51 42.11475 18.91054 19271 ft 419 kts 139°
2026-05-09 13:51 42.09317 18.93628 18675 ft 409 kts 139°
2026-05-09 13:51 42.07225 18.96122 18179 ft 393 kts 139°
2026-05-09 13:51 42.05220 18.98515 17724 ft 380 kts 139°
2026-05-09 13:52 42.03262 19.00855 17276 ft 377 kts 139°
2026-05-09 13:52 42.01313 19.03184 16835 ft 373 kts 139°
2026-05-09 13:52 41.99384 19.05484 16394 ft 369 kts 139°
2026-05-09 13:52 41.97469 19.07765 15960 ft 366 kts 139°
2026-05-09 13:53 41.95568 19.10028 15527 ft 363 kts 139°
2026-05-09 13:53 41.93680 19.12273 15090 ft 361 kts 139°
2026-05-09 13:53 41.91809 19.14497 14657 ft 358 kts 139°
2026-05-09 13:53 41.89945 19.16708 14222 ft 356 kts 139°
2026-05-09 13:54 41.88093 19.18903 13773 ft 355 kts 139°
2026-05-09 13:54 41.86249 19.21087 13305 ft 352 kts 139°
2026-05-09 13:54 41.84424 19.23245 12886 ft 348 kts 139°
2026-05-09 13:54 41.82614 19.25384 12455 ft 345 kts 139°
2026-05-09 13:55 41.80838 19.27484 12283 ft 334 kts 139°
2026-05-09 13:55 41.79125 19.29508 12156 ft 323 kts 139°
2026-05-09 13:55 41.77482 19.31506 11896 ft 316 kts 133°
2026-05-09 13:55 41.76050 19.33738 11446 ft 317 kts 129°
2026-05-09 13:56 41.74649 19.35978 11150 ft 310 kts 129°
2026-05-09 13:56 41.73274 19.38180 10550 ft 307 kts 130°
2026-05-09 13:56 41.71907 19.40364 9953 ft 305 kts 130°
2026-05-09 13:56 41.70553 19.42526 9302 ft 302 kts 130°
2026-05-09 13:57 41.69208 19.44668 8658 ft 299 kts 129°
2026-05-09 13:57 41.67882 19.46776 8021 ft 293 kts 129°
2026-05-09 13:57 41.66588 19.48833 7406 ft 285 kts 129°
2026-05-09 13:57 41.65330 19.50847 6800 ft 278 kts 126°
2026-05-09 13:58 41.64385 19.53051 6181 ft 271 kts 109°
2026-05-09 13:58 41.63960 19.55460 5549 ft 264 kts 93°
2026-05-09 13:58 41.64029 19.57881 4950 ft 258 kts 83°
2026-05-09 13:58 41.64210 19.60185 4835 ft 241 kts 84°
2026-05-09 13:59 41.64373 19.62366 4784 ft 233 kts 84°
2026-05-09 13:59 41.64534 19.64520 4728 ft 232 kts 84°
2026-05-09 13:59 41.64592 19.66668 4662 ft 232 kts 101°
2026-05-09 13:59 41.63823 19.68512 4592 ft 232 kts 139°
2026-05-09 14:00 41.62348 19.69367 4176 ft 237 kts 173°
2026-05-09 14:00 41.61816 19.69439 4033 ft 238 kts 175°
2026-05-09 14:00 41.59061 19.69715 3367 ft 236 kts 175°
2026-05-09 14:00 41.57442 19.69925 3034 ft 228 kts 174°
2026-05-09 14:01 41.55907 19.70131 2749 ft 215 kts 174°
2026-05-09 14:01 41.54490 19.70321 2482 ft 195 kts 175°
2026-05-09 14:01 41.53226 19.70491 2229 ft 170 kts 175°
2026-05-09 14:01 41.52111 19.70640 2002 ft 155 kts 175°
2026-05-09 14:02 41.51060 19.70780 1797 ft 150 kts 175°
2026-05-09 14:02 41.50026 19.70918 1598 ft 149 kts 174°
2026-05-09 14:02 41.48991 19.71055 1395 ft 150 kts 175°
2026-05-09 14:02 41.47950 19.71185 1222 ft 150 kts 175°
2026-05-09 14:03 41.46904 19.71313 1033 ft 151 kts 174°
2026-05-09 14:03 41.45868 19.71462 828 ft 148 kts 173°
2026-05-09 14:03 41.44849 19.71606 624 ft 145 kts 174°
2026-05-09 14:03 41.43861 19.71739 397 ft 141 kts 174°
2026-05-09 14:04 41.42890 19.71866 202 ft 139 kts 173°
2026-05-09 14:04 41.41966 19.71993 123 ft 117 kts 174°
2026-05-09 14:04 41.41330 19.72079 128 ft 67 kts 174°
2026-05-09 14:04 41.41036 19.72116 133 ft 18 kts 174°
2026-05-09 14:05 41.40919 19.72131 133 ft 20 kts 174°
2026-05-09 14:05 41.40772 19.72152 134 ft 18 kts 173°
2026-05-09 14:05 41.40685 19.72124 134 ft 14 kts 246°
2026-05-09 14:05 41.40659 19.71980 132 ft 18 kts 257°
2026-05-09 14:06 41.40635 19.71852 132 ft 12 kts 256°
2026-05-09 14:06 41.40681 19.71769 132 ft 14 kts 351°
2026-05-09 14:06 41.40790 19.71754 132 ft 17 kts 352°
2026-05-09 14:06 41.40914 19.71723 128 ft 19 kts 350°
2026-05-09 14:07 41.41052 19.71701 129 ft 20 kts 354°
2026-05-09 14:07 41.41195 19.71682 130 ft 21 kts 354°
2026-05-09 14:07 41.41344 19.71662 125 ft 22 kts 354°
2026-05-09 14:07 41.41500 19.71641 127 ft 23 kts 354°
2026-05-09 14:08 41.41665 19.71619 124 ft 24 kts 354°
2026-05-09 14:08 41.41757 19.71607 124 ft 18 kts 354°
2026-05-09 14:08 41.41884 19.71589 123 ft 17 kts 354°
2026-05-09 14:08 41.41966 19.71579 121 ft 6 kts 354°
2026-05-09 14:09 41.41991 19.71552 122 ft 5 kts 258°
2026-05-09 14:09 41.41989 19.71528 120 ft 2 kts 266°
2026-05-09 14:09 41.41988 19.71513 119 ft 1 kts 265°
2026-05-09 14:09 41.41988 19.71512 119 ft 0 kts 265°